Terug naar catalogus

STARLINK-11153

ActiefCommunicatieVLEO
NORAD 60067·PAYLOAD·🇺🇸 United States

Gelanceerd Jun 19, 2024 vanaf Vandenberg Space Force Base

Loading…

Volgende Passages (komende 24 uur)

TLE

VersSource: CelesTrak SupGP

Epoch: Sep 14, 2026, 21:36 UTC

1 60067C 24113J   26257.90048611 -.00053452  00000+0 -44009-3 0  2578
2 60067  53.1569 338.8815 0001191  69.0600 278.5303 15.69747732    19

Volg STARLINK-11153 in realtime met AllMySat

Download on the App Store